Moses Lake, WA

11:52 PM PST on February 22, 2017 (GMT -0800)
Grant County International

Weather History for KMWH - June, 2011

Change the Weather History Date:

Saturday, June 11, 2011

  Actual Average Record
Temperature  
Mean Temperature 65 °F 65 °F  
Max Temperature 77 °F 79 °F 93 °F (2015)
Min Temperature 53 °F 51 °F 37 °F (1985)
Degree Days  
Heating Degree Days 0 2  
Month to date heating degree days 39 29  
Since 1 June heating degree days 39 29  
Since 1 July heating degree days 6222 5856  
Cooling Degree Days 0 2  
Month to date cooling degree days 4 22  
Year to date cooling degree days 4 47  
Since 1 June cooling degree days 4 22  
Growing Degree Days 14 (Base 50)    
Moisture  
Dew Point 43 °F    
Average Humidity 49    
Maximum Humidity 77    
Minimum Humidity 21    
Precipitation  
Precipitation 0.00 in 0.03 in 0.04 in (1983)
Month to date precipitation 0.16 0.36  
Year to date precipitation 4.16 4.38  
Sea Level Pressure  
Sea Level Pressure 29.80 in    
Wind  
Wind Speed 6 mph (SW)    
Max Wind Speed 16 mph    
Max Gust Speed 21 mph    
Visibility 10 miles    
Events      
T = Trace of Precipitation, MM = Missing Value Source: NWS Daily Summary

Daily Weather History Graph

Daily Weather History Graph

Search for Another Location

Airport or City:

Trip Planner

Search our weather history database for the weather conditions in past years. The results will help you decide how hot, cold, wet, or windy it might be!

Date:

Astronomy

Jun. 11, 2011 Rise Set
Actual Time 5:01 AM PDT 8:52 PM PDT
Civil Twilight 4:21 AM PDT 9:32 PM PDT
Nautical Twilight 3:27 AM PDT 10:27 PM PDT
Astronomical Twilight 2:06 AM PDT 11:48 PM PDT
Moon 4:30 PM PDT (6/11) 1:53 AM PDT (6/11)
Length of Visible Light 17h 11m
Length of Day
15h 51m
Waxing Gibbous, 79% of the Moon is Illuminated
Jun 11
Waxing Gibbous
Jun 15
Full
Jun 23
Last Quarter
Jul 1
New
Jul 7
First Quarter

Hourly Weather History & Observations

Time (PDT) Temp. Dew Point Humidity Pressure Visibility Wind Dir Wind Speed Gust Speed Precip Events Conditions
12:52 AM 60.1 °F 48.9 °F 67% 29.85 in 10.0 mi West 4.6 mph - N/A   Overcast
1:52 AM 55.9 °F 48.9 °F 77% 29.85 in 10.0 mi North 6.9 mph - N/A   Scattered Clouds
2:52 AM 57.0 °F 46.0 °F 67% 29.84 in 10.0 mi NW 8.1 mph - N/A   Clear
3:52 AM 53.1 °F 45.0 °F 74% 29.83 in 10.0 mi NW 6.9 mph - N/A   Clear
4:52 AM 55.0 °F 48.0 °F 77% 29.83 in 10.0 mi Calm Calm - N/A   Mostly Cloudy
5:52 AM 55.0 °F 43.0 °F 64% 29.84 in 10.0 mi West 6.9 mph - N/A   Partly Cloudy
6:52 AM 57.0 °F 48.0 °F 72% 29.84 in 10.0 mi Calm Calm - N/A   Partly Cloudy
7:52 AM 60.1 °F 48.9 °F 67% 29.84 in 10.0 mi NNW 3.5 mph - N/A   Mostly Cloudy
8:52 AM 63.0 °F 46.0 °F 54% 29.84 in 10.0 mi North 4.6 mph - N/A   Clear
9:52 AM 66.0 °F 46.0 °F 48% 29.84 in 10.0 mi SW 3.5 mph - N/A   Clear
10:52 AM 69.1 °F 45.0 °F 42% 29.83 in 10.0 mi South 6.9 mph - N/A   Clear
11:52 AM 71.1 °F 44.1 °F 38% 29.81 in 10.0 mi SW 5.8 mph - N/A   Clear
12:52 PM 71.1 °F 43.0 °F 36% 29.81 in 10.0 mi South 10.4 mph 16.1 mph N/A   Clear
1:52 PM 73.0 °F 42.1 °F 33% 29.79 in 10.0 mi SSW 11.5 mph 17.3 mph N/A   Clear
2:52 PM 73.0 °F 42.1 °F 33% 29.77 in 10.0 mi South 12.7 mph 20.7 mph N/A   Clear
3:52 PM 73.9 °F 42.1 °F 32% 29.76 in 10.0 mi West 6.9 mph - N/A   Clear
4:52 PM 75.0 °F 32.0 °F 21% 29.75 in 10.0 mi Variable 4.6 mph - N/A   Clear
5:52 PM 75.0 °F 36.0 °F 24% 29.74 in 10.0 mi South 3.5 mph - N/A   Clear
6:52 PM 73.9 °F 37.0 °F 26% 29.73 in 10.0 mi SSE 6.9 mph - N/A   Clear
7:52 PM 73.0 °F 37.0 °F 27% 29.73 in 10.0 mi South 9.2 mph - N/A   Clear
8:52 PM 70.0 °F 42.1 °F 36% 29.74 in 10.0 mi South 8.1 mph - N/A   Clear
9:52 PM 66.9 °F 37.0 °F 33% 29.75 in 10.0 mi SW 5.8 mph - N/A   Clear
10:52 PM 63.0 °F 39.9 °F 43% 29.76 in 10.0 mi Calm Calm - N/A   Clear
11:52 PM 60.1 °F 39.9 °F 47% 29.77 in 10.0 mi WSW 6.9 mph - N/A   Clear